| time (UTC) | temp F | wind direction | speed knots | gust knots | rain 1hr in | rain 24hr in | rain mn in | humidity % | barometer mb |
| 20260901175503 | 95 | 92 | 1.7 | 6.1 | 0.00 | 0.00 | 0.00 | 56 | 1016.3 |
| 20260901175004 | 94 | 150 | 1.7 | 6.1 | 0.00 | 0.00 | 0.00 | 55 | 1016.4 |
| 20260901174503 | 94 | 76 | 1.7 | 6.1 | 0.00 | 0.00 | 0.00 | 57 | 1016.5 |
| 20260901174005 | 94 | 92 | 1.7 | 6.1 | 0.00 | 0.00 | 0.00 | 55 | 1016.5 |
| 20260901173503 | 94 | 184 | 1.7 | 2.6 | 0.00 | 0.00 | 0.00 | 57 | 1016.5 |
| 20260901172503 | 94 | 9 | 1.7 | 5.2 | 0.00 | 0.00 | 0.00 | 57 | 1016.4 |
| 20260901172004 | 94 | 88 | 1.7 | 3.5 | 0.00 | 0.00 | 0.00 | 57 | 1016.6 |
| 20260901171004 | 93 | 90 | 1.7 | 3.5 | 0.00 | 0.00 | 0.00 | 57 | 1016.6 |
| 20260901170503 | 93 | 24 | 1.7 | 3.5 | 0.00 | 0.00 | 0.00 | 58 | 1016.7 |
| 20260901170005 | 93 | 27 | 1.7 | 4.3 | 0.00 | 0.00 | 0.00 | 58 | 1016.7 |
| 20260901165503 | 93 | 76 | 1.7 | 6.1 | 0.00 | 0.00 | 0.00 | 58 | 1016.8 |
| 20260901165004 | 93 | 14 | 1.7 | 6.1 | 0.00 | 0.00 | 0.00 | 58 | 1016.9 |
| 20260901164503 | 93 | 71 | 1.7 | 4.3 | 0.00 | 0.00 | 0.00 | 60 | 1017.0 |
| 20260901164004 | 93 | 88 | 1.7 | 5.2 | 0.00 | 0.00 | 0.00 | 60 | 1017.0 |
| 20260901163504 | 93 | 213 | 1.7 | 7.8 | 0.00 | 0.00 | 0.00 | 60 | 1017.1 |
| 20260901163005 | 93 | 137 | 1.7 | 7.8 | 0.00 | 0.00 | 0.00 | 61 | 1017.2 |
| 20260901162502 | 92 | 121 | 1.7 | 5.2 | 0.00 | 0.00 | 0.00 | 62 | 1017.2 |
| 20260901162004 | 92 | 28 | 1.7 | 7.0 | 0.00 | 0.00 | 0.00 | 62 | 1017.3 |
| 20260901161504 | 92 | 63 | 1.7 | 7.0 | 0.00 | 0.00 | 0.00 | 63 | 1017.2 |
| 20260901161004 | 92 | 355 | 1.7 | 6.1 | 0.00 | 0.00 | 0.00 | 64 | 1017.4 |
| 20260901160504 | 92 | 126 | 1.7 | 6.1 | 0.00 | 0.00 | 0.00 | 65 | 1017.4 |
| 20260901160004 | 91 | 130 | 1.7 | 4.3 | 0.00 | 0.00 | 0.00 | 67 | 1017.4 |
| 20260901155005 | 91 | 189 | 1.7 | 5.2 | 0.00 | 0.00 | 0.00 | 68 | 1017.4 |
| 20260901154504 | 90 | 16 | 1.7 | 4.3 | 0.00 | 0.00 | 0.00 | 69 | 1017.6 |
| 20260901153503 | 89 | 90 | 0.9 | 5.2 | 0.00 | 0.00 | 0.00 | 72 | 1017.5 |
| 20260901153004 | 88 | 156 | 1.7 | 3.5 | 0.00 | 0.00 | 0.00 | 73 | 1017.5 |
| 20260901152503 | 87 | 34 | 1.7 | 3.5 | 0.00 | 0.00 | 0.00 | 73 | 1017.4 |
| 20260901152004 | 87 | 66 | 0.9 | 2.6 | 0.00 | 0.00 | 0.00 | 74 | 1017.4 |
| 20260901151003 | 87 | 78 | 0.9 | 2.6 | 0.00 | 0.00 | 0.00 | 76 | 1017.4 |
| 20260901150503 | 87 | 96 | 0.9 | 3.5 | 0.00 | 0.00 | 0.00 | 76 | 1017.4 |
| 20260901145504 | 86 | 35 | 1.7 | 4.3 | 0.00 | 0.00 | 0.00 | 78 | 1017.4 |
| 20260901144504 | 85 | 159 | 0.9 | 3.5 | 0.00 | 0.00 | 0.00 | 81 | 1017.6 |
| 20260901144004 | 84 | 134 | 0.9 | 2.6 | 0.00 | 0.00 | 0.00 | 82 | 1017.7 |
| 20260901143503 | 83 | 78 | 0.0 | 1.7 | 0.00 | 0.00 | 0.00 | 84 | 1017.7 |
| 20260901143004 | 83 | 45 | 0.9 | 2.6 | 0.00 | 0.00 | 0.00 | 85 | 1017.6 |
| 20260901142004 | 81 | 61 | 0.9 | 4.3 | 0.00 | 0.00 | 0.00 | 88 | 1017.7 |
| 20260901141004 | 79 | 28 | 0.9 | 2.6 | 0.00 | 0.00 | 0.00 | 90 | 1017.8 |
| 20260901140503 | 79 | 104 | 0.9 | 2.6 | 0.00 | 0.00 | 0.00 | 90 | 1017.9 |
| 20260901140004 | 79 | 155 | 0.9 | 3.5 | 0.00 | 0.00 | 0.00 | 91 | 1017.9 |
| 20260901135004 | 78 | 40 | 0.0 | 1.7 | 0.00 | 0.00 | 0.00 | 91 | 1017.9 |
| 20260901134003 | 77 | 84 | 0.0 | 0.0 | 0.00 | 0.00 | 0.00 | 92 | 1017.8 |
| 20260901133503 | 77 | 84 | 0.0 | 0.0 | 0.00 | 0.00 | 0.00 | 93 | 1017.8 |
| 20260901133004 | 77 | 141 | 0.0 | 0.0 | 0.00 | 0.00 | 0.00 | 93 | 1017.7 |
| 20260901132503 | 76 | 141 | 0.0 | 0.0 | 0.00 | 0.00 | 0.00 | 94 | 1017.6 |
| 20260901131503 | 76 | 76 | 0.0 | 0.0 | 0.00 | 0.00 | 0.00 | 94 | 1017.5 |
| 20260901131003 | 75 | 76 | 0.0 | 0.0 | 0.00 | 0.00 | 0.00 | 94 | 1017.6 |
| 20260901130502 | 75 | 85 | 0.0 | 0.0 | 0.00 | 0.00 | 0.00 | 95 | 1017.5 |
| 20260901130006 | 74 | 86 | 0.0 | 0.0 | 0.00 | 0.00 | 0.00 | 95 | 1017.4 |
| 20260901125503 | 74 | 88 | 0.0 | 0.0 | 0.00 | 0.00 | 0.00 | 95 | 1017.4 |
| 20260901125003 | 74 | 89 | 0.0 | 0.0 | 0.00 | 0.00 | 0.00 | 94 | 1017.3 |
| 20260901124504 | 74 | 88 | 0.0 | 0.0 | 0.00 | 0.00 | 0.00 | 94 | 1017.2 |
| 20260901124004 | 73 | 92 | 0.0 | 0.0 | 0.00 | 0.00 | 0.00 | 94 | 1017.2 |
| 20260901123503 | 73 | 91 | 0.0 | 0.0 | 0.00 | 0.00 | 0.00 | 94 | 1017.1 |
| 20260901122504 | 73 | 92 | 0.0 | 0.0 | 0.00 | 0.00 | 0.00 | 94 | 1016.9 |
| 20260901122003 | 73 | 92 | 0.0 | 0.0 | 0.00 | 0.00 | 0.00 | 94 | 1016.9 |
| 20260901121503 | 73 | 92 | 0.0 | 0.0 | 0.00 | 0.00 | 0.00 | 94 | 1016.8 |
| 20260901121004 | 73 | 92 | 0.0 | 0.0 | 0.00 | 0.00 | 0.00 | 93 | 1016.7 |
| 20260901120503 | 73 | 92 | 0.0 | 0.0 | 0.00 | 0.00 | 0.00 | 93 | 1016.8 |
| 20260901120005 | 73 | 92 | 0.0 | 0.0 | 0.00 | 0.00 | 0.00 | 93 | 1016.5 |
| 20260901115500 | 73 | 92 | 0.0 | 0.0 | 0.00 | 0.00 | 0.00 | 93 | 1016.4 |
| 20260901115003 | 73 | 92 | 0.0 | 0.0 | 0.00 | 0.00 | 0.00 | 93 | 1016.5 |
| 20260901114504 | 73 | 92 | 0.0 | 0.0 | 0.00 | 0.00 | 0.00 | 92 | 1016.5 |
| 20260901114003 | 73 | 92 | 0.0 | 0.0 | 0.00 | 0.00 | 0.00 | 92 | 1016.6 |
| 20260901113003 | 73 | 92 | 0.0 | 0.0 | 0.00 | 0.00 | 0.00 | 93 | 1016.4 |
| 20260901112500 | 73 | 92 | 0.0 | 0.0 | 0.00 | 0.00 | 0.00 | 92 | 1016.3 |
| 20260901112003 | 73 | 92 | 0.0 | 0.0 | 0.00 | 0.00 | 0.00 | 92 | 1016.3 |
| 20260901111503 | 73 | 92 | 0.0 | 0.0 | 0.00 | 0.00 | 0.00 | 92 | 1016.4 |
| 20260901111003 | 73 | 92 | 0.0 | 0.0 | 0.00 | 0.00 | 0.00 | 92 | 1016.5 |
| 20260901110004 | 73 | 92 | 0.0 | 0.0 | 0.00 | 0.00 | 0.00 | 92 | 1016.3 |
| 20260901105500 | 73 | 92 | 0.0 | 0.0 | 0.00 | 0.00 | 0.00 | 92 | 1016.3 |
| 20260901105003 | 73 | 92 | 0.0 | 0.0 | 0.00 | 0.00 | 0.00 | 93 | 1016.3 |
| 20260901104503 | 73 | 92 | 0.0 | 0.0 | 0.00 | 0.00 | 0.00 | 93 | 1016.1 |
| 20260901104003 | 73 | 92 | 0.0 | 0.0 | 0.00 | 0.00 | 0.00 | 92 | 1016.3 |
| 20260901103459 | 73 | 92 | 0.0 | 0.0 | 0.00 | 0.00 | 0.00 | 92 | 1016.5 |
| 20260901103004 | 73 | 92 | 0.0 | 0.0 | 0.00 | 0.00 | 0.00 | 93 | 1016.5 |
| 20260901102500 | 73 | 92 | 0.0 | 0.0 | 0.00 | 0.00 | 0.00 | 93 | 1016.6 |
| 20260901101502 | 73 | 92 | 0.0 | 0.0 | 0.00 | 0.00 | 0.00 | 92 | 1016.3 |
| 20260901101004 | 73 | 92 | 0.0 | 0.0 | 0.00 | 0.00 | 0.00 | 92 | 1016.4 |
| 20260901100006 | 73 | 92 | 0.0 | 0.0 | 0.00 | 0.00 | 0.00 | 92 | 1016.5 |
| 20260901095503 | 73 | 92 | 0.0 | 0.0 | 0.00 | 0.00 | 0.00 | 92 | 1016.6 |
| 20260901095004 | 73 | 92 | 0.0 | 0.0 | 0.00 | 0.00 | 0.00 | 92 | 1016.6 |
| 20260901094003 | 73 | 92 | 0.0 | 0.0 | 0.00 | 0.00 | 0.00 | 92 | 1016.5 |
| 20260901093503 | 73 | 92 | 0.0 | 0.0 | 0.00 | 0.00 | 0.00 | 92 | 1016.4 |
| 20260901092503 | 74 | 92 | 0.0 | 0.0 | 0.00 | 0.00 | 0.00 | 91 | 1016.3 |
| 20260901092004 | 74 | 92 | 0.0 | 0.0 | 0.00 | 0.00 | 0.00 | 91 | 1016.2 |
| 20260901091500 | 74 | 92 | 0.0 | 0.0 | 0.00 | 0.00 | 0.00 | 91 | 1016.2 |
| 20260901090503 | 74 | 92 | 0.0 | 0.0 | 0.00 | 0.00 | 0.00 | 90 | 1016.3 |
| 20260901090004 | 74 | 92 | 0.0 | 0.0 | 0.00 | 0.00 | 0.00 | 90 | 1016.5 |
| 20260901085500 | 75 | 92 | 0.0 | 0.0 | 0.00 | 0.00 | 0.00 | 90 | 1016.5 |
| 20260901084502 | 75 | 92 | 0.0 | 0.0 | 0.00 | 0.00 | 0.00 | 90 | 1016.4 |
| 20260901084000 | 75 | 92 | 0.0 | 0.0 | 0.00 | 0.00 | 0.00 | 89 | 1016.3 |
| 20260901083503 | 75 | 92 | 0.0 | 0.0 | 0.00 | 0.00 | 0.00 | 90 | 1016.2 |
| 20260901082500 | 75 | 92 | 0.0 | 0.0 | 0.00 | 0.00 | 0.00 | 89 | 1016.1 |
| 20260901082004 | 75 | 92 | 0.0 | 0.0 | 0.00 | 0.00 | 0.00 | 89 | 1016.1 |
| 20260901081500 | 75 | 92 | 0.0 | 0.0 | 0.00 | 0.00 | 0.00 | 88 | 1016.1 |
| 20260901081004 | 75 | 92 | 0.0 | 0.0 | 0.00 | 0.00 | 0.00 | 88 | 1016.2 |
| 20260901080500 | 76 | 92 | 0.0 | 0.0 | 0.00 | 0.00 | 0.00 | 88 | 1016.3 |
| 20260901080003 | 76 | 92 | 0.0 | 0.0 | 0.00 | 0.00 | 0.00 | 88 | 1016.2 |
| 20260901075503 | 76 | 92 | 0.0 | 0.0 | 0.00 | 0.00 | 0.00 | 88 | 1016.4 |
| 20260901075003 | 76 | 92 | 0.0 | 0.0 | 0.00 | 0.00 | 0.00 | 87 | 1016.4 |
| 20260901074500 | 76 | 92 | 0.0 | 0.0 | 0.00 | 0.00 | 0.00 | 87 | 1016.5 |
| 20260901073501 | 76 | 92 | 0.0 | 0.0 | 0.00 | 0.00 | 0.00 | 87 | 1016.4 |
| 20260901073004 | 76 | 92 | 0.0 | 0.0 | 0.00 | 0.00 | 0.00 | 87 | 1016.3 |
| 20260901072500 | 76 | 92 | 0.0 | 0.0 | 0.00 | 0.00 | 0.00 | 87 | 1016.3 |
| 20260901072003 | 76 | 92 | 0.0 | 0.0 | 0.00 | 0.00 | 0.00 | 87 | 1016.2 |
| 20260901071504 | 76 | 92 | 0.0 | 0.0 | 0.00 | 0.00 | 0.00 | 87 | 1016.2 |
| 20260901071003 | 76 | 92 | 0.0 | 0.0 | 0.00 | 0.00 | 0.00 | 87 | 1016.2 |
| 20260901070500 | 76 | 92 | 0.0 | 0.0 | 0.00 | 0.00 | 0.00 | 87 | 1016.3 |
| 20260901070004 | 76 | 92 | 0.0 | 0.0 | 0.00 | 0.00 | 0.00 | 87 | 1016.3 |
| 20260901065500 | 77 | 92 | 0.0 | 0.0 | 0.00 | 0.00 | 0.00 | 86 | 1016.2 |
| 20260901065002 | 77 | 92 | 0.0 | 0.0 | 0.00 | 0.00 | 0.00 | 86 | 1016.3 |
| 20260901064500 | 77 | 92 | 0.0 | 0.0 | 0.00 | 0.00 | 0.00 | 86 | 1016.4 |
| 20260901064004 | 77 | 92 | 0.0 | 0.0 | 0.00 | 0.00 | 0.00 | 86 | 1016.4 |
| 20260901063503 | 77 | 92 | 0.0 | 0.0 | 0.00 | 0.00 | 0.00 | 86 | 1016.5 |
| 20260901063003 | 77 | 92 | 0.0 | 0.0 | 0.00 | 0.00 | 0.00 | 86 | 1016.6 |
| 20260901062003 | 77 | 92 | 0.0 | 0.0 | 0.00 | 0.00 | 0.00 | 85 | 1016.6 |
| 20260901060500 | 77 | 92 | 0.0 | 2.6 | 0.00 | 0.00 | 0.00 | 85 | 1016.7 |
| 20260901055504 | 77 | 89 | 0.0 | 0.9 | 0.00 | 0.00 | 0.00 | 85 | 1016.7 |
| 20260901055004 | 77 | 88 | 0.0 | 0.9 | 0.00 | 0.00 | 0.00 | 84 | 1016.7 |
| 20260901054504 | 77 | 89 | 0.0 | 0.9 | 0.00 | 0.00 | 0.00 | 84 | 1016.7 |
| 20260901054006 | 78 | 89 | 0.0 | 0.9 | 0.00 | 0.00 | 0.00 | 84 | 1016.6 |
| 20260901052504 | 78 | 89 | 0.0 | 0.0 | 0.00 | 0.00 | 0.00 | 83 | 1016.6 |
| 20260901052004 | 78 | 89 | 0.0 | 0.0 | 0.00 | 0.00 | 0.00 | 83 | 1016.5 |
| 20260901051504 | 79 | 89 | 0.0 | 0.0 | 0.00 | 0.00 | 0.00 | 82 | 1016.5 |
| 20260901051006 | 79 | 89 | 0.0 | 0.0 | 0.00 | 0.00 | 0.00 | 82 | 1016.6 |
| 20260901050010 | 79 | 88 | 0.0 | 0.0 | 0.00 | 0.00 | 0.00 | 82 | 1016.4 |
| 20260901045504 | 79 | 88 | 0.0 | 0.0 | 0.00 | 0.00 | 0.00 | 81 | 1016.3 |
| 20260901045004 | 79 | 88 | 0.0 | 0.0 | 0.00 | 0.00 | 0.00 | 81 | 1016.3 |
| 20260901044506 | 79 | 88 | 0.0 | 0.0 | 0.00 | 0.00 | 0.00 | 81 | 1016.4 |
| 20260901044004 | 79 | 89 | 0.0 | 0.0 | 0.00 | 0.00 | 0.00 | 81 | 1016.3 |
| 20260901043503 | 79 | 88 | 0.0 | 0.0 | 0.00 | 0.00 | 0.00 | 81 | 1016.3 |
| 20260901043004 | 79 | 88 | 0.0 | 0.0 | 0.00 | 0.00 | 0.00 | 80 | 1016.3 |
| 20260901042004 | 80 | 88 | 0.0 | 0.0 | 0.00 | 0.00 | 0.00 | 80 | 1016.1 |
| 20260901041504 | 80 | 88 | 0.0 | 0.0 | 0.00 | 0.00 | 0.00 | 80 | 1016.0 |
| 20260901040503 | 80 | 88 | 0.0 | 0.9 | 0.00 | 0.00 | 0.00 | 79 | 1016.0 |
| 20260901035503 | 80 | 89 | 0.0 | 0.0 | 0.00 | 0.00 | 0.00 | 79 | 1015.9 |
| 20260901035004 | 80 | 88 | 0.0 | 0.0 | 0.00 | 0.00 | 0.00 | 79 | 1015.8 |
| 20260901034504 | 81 | 89 | 0.0 | 0.0 | 0.00 | 0.00 | 0.00 | 78 | 1015.8 |
| 20260901034004 | 81 | 89 | 0.0 | 0.9 | 0.00 | 0.00 | 0.00 | 78 | 1015.9 |
| 20260901033503 | 81 | 88 | 0.0 | 0.9 | 0.00 | 0.00 | 0.00 | 78 | 1016.0 |
| 20260901032504 | 81 | 89 | 0.0 | 0.0 | 0.00 | 0.00 | 0.00 | 77 | 1015.9 |
| 20260901032004 | 81 | 89 | 0.0 | 0.0 | 0.00 | 0.00 | 0.00 | 77 | 1015.9 |
| 20260901031504 | 81 | 89 | 0.0 | 0.0 | 0.00 | 0.00 | 0.00 | 77 | 1015.9 |
| 20260901031004 | 81 | 89 | 0.0 | 0.0 | 0.00 | 0.00 | 0.00 | 76 | 1015.8 |
| 20260901030504 | 82 | 89 | 0.0 | 0.0 | 0.00 | 0.00 | 0.00 | 76 | 1015.7 |
| 20260901025504 | 82 | 89 | 0.0 | 0.9 | 0.00 | 0.00 | 0.00 | 76 | 1015.7 |
| 20260901025004 | 82 | 89 | 0.0 | 0.9 | 0.00 | 0.00 | 0.00 | 75 | 1015.7 |
| 20260901024504 | 82 | 89 | 0.0 | 1.7 | 0.00 | 0.00 | 0.00 | 75 | 1015.7 |
| 20260901024005 | 82 | 130 | 0.0 | 0.9 | 0.00 | 0.00 | 0.00 | 74 | 1015.7 |
| 20260901023006 | 82 | 130 | 0.0 | 1.7 | 0.00 | 0.00 | 0.00 | 73 | 1015.6 |
| 20260901022504 | 83 | 201 | 0.0 | 0.0 | 0.00 | 0.00 | 0.00 | 73 | 1015.5 |
| 20260901022005 | 83 | 201 | 0.0 | 1.7 | 0.00 | 0.00 | 0.00 | 74 | 1015.4 |
| 20260901021504 | 83 | 201 | 0.0 | 2.6 | 0.00 | 0.00 | 0.00 | 73 | 1015.3 |
| 20260901020006 | 83 | 253 | 0.0 | 2.6 | 0.00 | 0.00 | 0.00 | 74 | 1015.3 |
| 20260901015504 | 83 | 253 | 0.0 | 2.6 | 0.00 | 0.00 | 0.00 | 74 | 1015.3 |
| 20260901015004 | 83 | 90 | 0.0 | 1.7 | 0.00 | 0.00 | 0.00 | 73 | 1015.4 |
| 20260901014504 | 83 | 90 | 0.0 | 0.9 | 0.00 | 0.00 | 0.00 | 72 | 1015.4 |
| 20260901014003 | 84 | 92 | 0.0 | 0.9 | 0.00 | 0.00 | 0.00 | 73 | 1015.2 |
| 20260901013503 | 84 | 93 | 0.0 | 0.9 | 0.00 | 0.00 | 0.00 | 72 | 1015.3 |
| 20260901013004 | 84 | 94 | 0.0 | 0.0 | 0.00 | 0.00 | 0.00 | 72 | 1015.4 |
| 20260901012504 | 84 | 94 | 0.0 | 1.7 | 0.00 | 0.00 | 0.00 | 71 | 1015.3 |
| 20260901012004 | 84 | 88 | 0.0 | 0.9 | 0.00 | 0.00 | 0.00 | 70 | 1015.3 |
| 20260901011504 | 85 | 162 | 0.0 | 0.0 | 0.00 | 0.00 | 0.00 | 70 | 1015.2 |
| 20260901011004 | 85 | 162 | 0.0 | 0.0 | 0.00 | 0.00 | 0.00 | 69 | 1015.2 |
| 20260901010004 | 86 | 162 | 0.0 | 0.0 | 0.00 | 0.00 | 0.00 | 68 | 1015.0 |
| 20260901005503 | 86 | 162 | 0.0 | 0.0 | 0.00 | 0.00 | 0.00 | 68 | 1015.1 |
| 20260901005004 | 87 | 161 | 0.0 | 0.0 | 0.00 | 0.00 | 0.00 | 68 | 1015.0 |
| 20260901004504 | 87 | 162 | 0.0 | 0.0 | 0.00 | 0.00 | 0.00 | 67 | 1014.9 |
| 20260901004004 | 87 | 162 | 0.0 | 0.0 | 0.00 | 0.00 | 0.00 | 66 | 1014.8 |
| 20260901003004 | 88 | 162 | 0.0 | 0.0 | 0.00 | 0.00 | 0.00 | 65 | 1014.9 |
| 20260901002004 | 89 | 161 | 0.0 | 0.0 | 0.00 | 0.00 | 0.00 | 62 | 1014.8 |
| 20260901001004 | 89 | 162 | 0.0 | 0.0 | 0.00 | 0.00 | 0.00 | 59 | 1014.7 |
| 20260901000504 | 89 | 162 | 0.0 | 0.0 | 0.00 | 0.00 | 0.00 | 58 | 1014.6 |
| 20260901000008 | 90 | 161 | 0.0 | 0.0 | 0.00 | 0.00 | 0.00 | 58 | 1014.8 |
| 20260831235503 | 90 | 162 | 0.0 | 1.7 | 0.00 | 0.00 | 0.00 | 58 | 1014.9 |
| 20260831235004 | 90 | 162 | 0.0 | 1.7 | 0.00 | 0.00 | 0.00 | 57 | 1014.9 |
| 20260831234004 | 91 | 162 | 0.0 | 0.0 | 0.00 | 0.00 | 0.00 | 55 | 1015.1 |
| 20260831233503 | 91 | 162 | 0.0 | 1.7 | 0.00 | 0.00 | 0.00 | 55 | 1015.0 |
| 20260831233004 | 91 | 162 | 0.0 | 1.7 | 0.00 | 0.00 | 0.00 | 54 | 1014.9 |
| 20260831232504 | 91 | 96 | 0.0 | 0.9 | 0.00 | 0.00 | 0.00 | 53 | 1015.0 |
| 20260831232003 | 92 | 95 | 0.9 | 1.7 | 0.00 | 0.00 | 0.00 | 54 | 1015.1 |
| 20260831230503 | 92 | 138 | 0.0 | 2.6 | 0.00 | 0.00 | 0.00 | 54 | 1014.9 |
| 20260831230006 | 92 | 182 | 0.9 | 2.6 | 0.00 | 0.00 | 0.00 | 54 | 1014.9 |
| 20260831225504 | 92 | 109 | 0.9 | 2.6 | 0.00 | 0.00 | 0.00 | 53 | 1015.0 |
| 20260831225004 | 92 | 211 | 0.9 | 3.5 | 0.00 | 0.00 | 0.00 | 53 | 1014.9 |
| 20260831224504 | 92 | 16 | 0.9 | 2.6 | 0.00 | 0.00 | 0.00 | 53 | 1014.9 |
| 20260831224003 | 92 | 64 | 0.9 | 1.7 | 0.00 | 0.00 | 0.00 | 53 | 1015.0 |
| 20260831223503 | 92 | 89 | 0.9 | 3.5 | 0.00 | 0.00 | 0.00 | 54 | 1014.9 |
| 20260831223004 | 92 | 188 | 0.9 | 3.5 | 0.00 | 0.00 | 0.00 | 52 | 1015.0 |
| 20260831222503 | 92 | 169 | 0.9 | 3.5 | 0.00 | 0.00 | 0.00 | 52 | 1014.8 |
| 20260831222005 | 92 | 219 | 0.9 | 2.6 | 0.00 | 0.00 | 0.00 | 52 | 1014.8 |
| 20260831221504 | 92 | 71 | 0.9 | 2.6 | 0.00 | 0.00 | 0.00 | 52 | 1014.8 |
| 20260831221004 | 92 | 102 | 0.9 | 2.6 | 0.00 | 0.00 | 0.00 | 53 | 1014.8 |
| 20260831220503 | 92 | 167 | 0.9 | 6.1 | 0.00 | 0.00 | 0.00 | 53 | 1014.9 |
| 20260831220006 | 92 | 108 | 0.9 | 6.1 | 0.00 | 0.00 | 0.00 | 54 | 1014.8 |
| 20260831215503 | 92 | 112 | 0.9 | 3.5 | 0.00 | 0.00 | 0.00 | 55 | 1014.8 |
| 20260831215004 | 92 | 208 | 0.0 | 1.7 | 0.00 | 0.00 | 0.00 | 55 | 1015.0 |
| 20260831214504 | 92 | 208 | 0.0 | 1.7 | 0.00 | 0.00 | 0.00 | 54 | 1015.0 |
| 20260831214004 | 93 | 208 | 0.0 | 0.9 | 0.00 | 0.00 | 0.00 | 53 | 1015.3 |
| 20260831213503 | 93 | 208 | 0.0 | 1.7 | 0.00 | 0.00 | 0.00 | 53 | 1015.3 |
| 20260831213004 | 94 | 139 | 0.9 | 2.6 | 0.00 | 0.00 | 0.00 | 51 | 1015.3 |
| 20260831212503 | 94 | 150 | 1.7 | 2.6 | 0.00 | 0.00 | 0.00 | 50 | 1015.5 |
| 20260831212003 | 95 | 24 | 1.7 | 2.6 | 0.00 | 0.00 | 0.00 | 50 | 1015.5 |
| 20260831211504 | 95 | 23 | 0.9 | 2.6 | 0.00 | 0.00 | 0.00 | 51 | 1015.4 |
| 20260831211004 | 94 | 144 | 0.9 | 4.3 | 0.00 | 0.00 | 0.00 | 50 | 1015.6 |
| 20260831210503 | 94 | 159 | 0.9 | 4.3 | 0.00 | 0.00 | 0.00 | 51 | 1015.5 |
| 20260831205503 | 95 | 214 | 0.9 | 1.7 | 0.00 | 0.00 | 0.00 | 50 | 1015.5 |
| 20260831205004 | 95 | 28 | 0.9 | 3.5 | 0.00 | 0.00 | 0.00 | 52 | 1015.7 |
| 20260831204004 | 95 | 105 | 0.9 | 2.6 | 0.00 | 0.00 | 0.00 | 52 | 1015.7 |
| 20260831203503 | 95 | 155 | 0.9 | 5.2 | 0.00 | 0.00 | 0.00 | 50 | 1015.7 |
| 20260831203004 | 95 | 143 | 0.9 | 5.2 | 0.00 | 0.00 | 0.00 | 51 | 1015.7 |
| 20260831202504 | 95 | 265 | 0.9 | 2.6 | 0.00 | 0.00 | 0.00 | 52 | 1015.8 |
| 20260831202004 | 96 | 24 | 1.7 | 2.6 | 0.00 | 0.00 | 0.00 | 51 | 1015.9 |
| 20260831201504 | 96 | 82 | 0.9 | 2.6 | 0.00 | 0.00 | 0.00 | 51 | 1015.8 |
| 20260831201004 | 96 | 114 | 1.7 | 3.5 | 0.00 | 0.00 | 0.00 | 51 | 1015.8 |
| 20260831200504 | 96 | 17 | 1.7 | 3.5 | 0.00 | 0.00 | 0.00 | 52 | 1015.8 |
| 20260831195503 | 95 | 132 | 0.0 | 3.5 | 0.00 | 0.00 | 0.00 | 52 | 1015.9 |
| 20260831195003 | 95 | 67 | 0.9 | 1.7 | 0.00 | 0.00 | 0.00 | 53 | 1016.1 |
| 20260831194504 | 95 | 67 | 1.7 | 3.5 | 0.00 | 0.00 | 0.00 | 51 | 1016.1 |
| 20260831194005 | 96 | 47 | 1.7 | 3.5 | 0.00 | 0.00 | 0.00 | 51 | 1016.1 |
| 20260831192503 | 95 | 150 | 0.9 | 2.6 | 0.00 | 0.00 | 0.00 | 53 | 1016.5 |
| 20260831192003 | 95 | 109 | 0.9 | 2.6 | 0.00 | 0.00 | 0.00 | 52 | 1016.5 |
| 20260831191503 | 95 | 112 | 0.9 | 2.6 | 0.00 | 0.00 | 0.00 | 52 | 1016.6 |
| 20260831190503 | 95 | 194 | 1.7 | 3.5 | 0.00 | 0.00 | 0.00 | 52 | 1016.7 |
| 20260831185503 | 95 | 262 | 0.9 | 2.6 | 0.00 | 0.00 | 0.00 | 54 | 1016.6 |
| 20260831184504 | 94 | 105 | 0.9 | 5.2 | 0.00 | 0.00 | 0.00 | 54 | 1016.8 |
| 20260831184004 | 94 | 286 | 0.9 | 2.6 | 0.00 | 0.00 | 0.00 | 55 | 1016.7 |
| 20260831183503 | 95 | 26 | 0.9 | 2.6 | 0.00 | 0.00 | 0.00 | 54 | 1016.8 |
| 20260831183006 | 95 | 183 | 1.7 | 3.5 | 0.00 | 0.00 | 0.00 | 54 | 1016.7 |
| 20260831182504 | 94 | 202 | 1.7 | 3.5 | 0.00 | 0.00 | 0.00 | 56 | 1016.8 |
| 20260831182004 | 94 | 71 | 1.7 | 3.5 | 0.00 | 0.00 | 0.00 | 58 | 1016.8 |
| 20260831181504 | 93 | 28 | 1.7 | 4.3 | 0.00 | 0.00 | 0.00 | 56 | 1016.9 |
| 20260831181005 | 93 | 194 | 1.7 | 4.3 | 0.00 | 0.00 | 0.00 | 56 | 1017.0 |
| 20260831180503 | 93 | 74 | 0.9 | 2.6 | 0.00 | 0.00 | 0.00 | 59 | 1017.2 |
| 20260831180006 | 93 | 344 | 0.9 | 2.6 | 0.00 | 0.00 | 0.00 | 56 | 1017.3 |